N3UJJ-1 Weather Reports


Display with metric or nautical units.
time (UTC)temp
F
wind
direction
speed
MPH
gust
MPH
rain 1hr
in
rain 24hr
in
rain mn
in
humidity
%
barometer
mb
20260507094456 54 350 0.0 0.0 0.00 0.25 0.16 94 1011.2
20260507093131 54 350 0.0 8.0 0.00 0.25 0.16 94 1010.8
20260507091630 54 355 0.0 8.0 0.00 0.25 0.16 93 1011.0
20260507090130 54 355 0.0 7.0 0.00 0.25 0.16 94 1010.7
20260507084630 54 355 0.0 7.0 0.00 0.25 0.16 95 1010.7
20260507084455 55 333 4.0 8.0 0.00 0.25 0.16 95 1010.7
20260507083129 55 344 0.0 7.0 0.00 0.25 0.16 95 1010.8
20260507081629 55 296 0.0 7.0 0.00 0.25 0.16 95 1010.4
20260507080130 55 327 0.0 7.0 0.00 0.25 0.16 95 1010.0
20260507074629 56 322 0.0 7.0 0.00 0.25 0.16 95 1009.9
20260507074505 56 322 1.0 5.0 0.00 0.25 0.16 95 1010.0
20260507073129 56 24 1.0 7.0 0.00 0.25 0.16 95 1009.6
20260507071629 56 346 1.0 7.0 0.00 0.25 0.16 95 1009.6
20260507070128 56 347 4.0 13.0 0.01 0.25 0.16 95 1009.6
20260507064628 57 71 2.0 13.0 0.01 0.25 0.16 95 1009.8
20260507064444 57 10 0.0 7.0 0.01 0.25 0.16 95 1009.7
20260507063128 57 355 4.0 12.0 0.08 0.25 0.16 95 1009.3
20260507061628 58 300 7.0 12.0 0.08 0.25 0.16 95 1008.8
20260507060127 59 18 0.0 7.0 0.15 0.24 0.15 95 1008.9
20260507054627 59 355 1.0 7.0 0.15 0.24 0.15 95 1009.4
20260507054452 59 355 0.0 4.0 0.15 0.24 0.15 95 1009.5
20260507053127 59 291 1.0 5.0 0.08 0.17 0.08 94 1009.1
20260507051627 60 34 0.0 5.0 0.08 0.17 0.08 92 1009.2
20260507050127 61 290 0.0 9.0 0.00 0.09 0.00 90 1009.8
20260507044626 62 5 0.0 9.0 0.00 0.09 0.00 89 1009.8
20260507044510 63 5 0.0 5.0 0.00 0.09 0.00 89 1009.7
20260507043126 63 14 4.0 2.0 0.00 0.09 0.00 90 1009.7
20260507041626 64 311 7.0 2.0 0.00 0.09 0.00 92 1009.2
20260507040126 65 294 0.0 3.0 0.00 0.09 0.09 93 1008.9
20260507034626 65 294 0.0 3.0 0.00 0.09 0.09 92 1008.9
20260507034512 65 294 0.0 0.0 0.00 0.09 0.09 92 1009.0
20260507033126 65 293 0.0 0.0 0.00 0.09 0.09 92 1008.7
20260507031625 65 133 0.0 0.0 0.00 0.09 0.09 92 1008.6
20260507030125 66 277 0.0 4.0 0.00 0.09 0.09 91 1008.6
20260507024625 66 163 0.0 4.0 0.00 0.09 0.09 91 1008.1
20260507024457 66 163 0.0 0.0 0.00 0.09 0.09 91 1008.2
20260507023125 66 163 0.0 0.0 0.00 0.09 0.09 92 1008.2
20260507021625 65 160 1.0 0.0 0.00 0.09 0.09 92 1008.0
20260507020124 65 161 0.0 0.0 0.00 0.09 0.09 92 1008.2
20260507014624 65 161 0.0 0.0 0.00 0.09 0.09 92 1008.1
20260507014447 65 161 0.0 0.0 0.00 0.09 0.09 92 1008.2
20260507013124 65 161 0.0 0.0 0.00 0.09 0.09 91 1008.4
20260507011624 65 161 0.0 0.0 0.00 0.09 0.09 91 1008.8
20260507010124 66 161 0.0 1.0 0.00 0.09 0.09 90 1008.5
20260507004623 66 161 0.0 1.0 0.00 0.09 0.09 89 1008.4
20260507004448 66 161 0.0 0.0 0.00 0.09 0.09 89 1008.3
20260507003123 66 161 0.0 0.0 0.00 0.09 0.09 88 1008.1
20260507001623 67 161 0.0 0.0 0.00 0.09 0.09 87 1008.1
20260507000123 67 161 0.0 2.0 0.00 0.09 0.09 86 1007.9
20260506234623 68 161 0.0 2.0 0.00 0.09 0.09 86 1007.7
20260506234517 68 161 0.0 0.0 0.00 0.09 0.09 86 1007.8
20260506233122 68 161 0.0 4.0 0.00 0.09 0.09 85 1007.8
20260506231622 69 153 1.0 4.0 0.00 0.09 0.09 84 1007.6
20260506230122 69 180 0.0 9.0 0.00 0.09 0.09 83 1007.5
20260506224622 69 180 0.0 9.0 0.00 0.09 0.09 83 1007.3
20260506224506 69 180 0.0 4.0 0.00 0.09 0.09 83 1007.4
20260506223122 69 225 0.0 7.0 0.00 0.09 0.09 83 1007.5
20260506221621 69 253 0.0 7.0 0.00 0.09 0.09 82 1007.6
20260506220121 70 214 0.0 10.0 0.00 0.09 0.09 82 1007.4
20260506214621 70 333 1.0 10.0 0.00 0.09 0.09 82 1007.6
20260506214445 70 203 3.0 6.0 0.00 0.09 0.09 82 1007.7
20260506213121 70 142 2.0 11.0 0.00 0.09 0.09 81 1007.3
20260506211621 70 114 0.0 11.0 0.00 0.09 0.09 82 1007.3
20260506210121 70 152 4.0 9.0 0.00 0.09 0.09 81 1007.0
20260506204620 69 94 4.0 9.0 0.00 0.09 0.09 82 1007.0
20260506204519 69 198 1.0 8.0 0.00 0.09 0.09 82 1007.1
20260506203120 69 188 4.0 13.0 0.00 0.09 0.09 82 1007.0
20260506201620 69 238 1.0 13.0 0.00 0.09 0.09 83 1007.2
20260506200120 69 59 0.0 14.0 0.00 0.09 0.09 83 1007.1
20260506194620 68 188 2.0 14.0 0.00 0.09 0.09 83 1007.0
20260506194447 68 322 3.0 14.0 0.00 0.09 0.09 83 1007.0
20260506193119 68 130 6.0 10.0 0.00 0.09 0.09 83 1007.3
20260506191619 68 128 7.0 10.0 0.00 0.09 0.09 83 1007.6
20260506190119 69 144 1.0 13.0 0.00 0.09 0.09 83 1007.8
20260506184619 69 230 0.0 13.0 0.00 0.09 0.09 82 1007.7
20260506184510 69 230 2.0 9.0 0.00 0.09 0.09 82 1007.7
20260506183118 68 140 1.0 14.0 0.00 0.09 0.09 83 1007.8
20260506181618 68 78 7.0 14.0 0.00 0.09 0.09 83 1008.2
20260506180118 67 261 1.0 14.0 0.00 0.09 0.09 84 1008.4
20260506174618 67 262 2.0 14.0 0.00 0.09 0.09 86 1008.4
20260506174444 66 279 2.0 9.0 0.00 0.09 0.09 86 1008.4
20260506173118 66 177 2.0 14.0 0.00 0.09 0.09 88 1008.3
20260506171618 65 180 3.0 14.0 0.00 0.09 0.09 89 1008.6
20260506170118 64 175 1.0 18.0 0.01 0.09 0.09 91 1008.6
20260506164617 64 163 2.0 18.0 0.01 0.09 0.09 93 1008.7
20260506164457 64 146 5.0 12.0 0.00 0.09 0.09 93 1008.8
20260506163117 63 125 5.0 14.0 0.03 0.09 0.09 94 1008.8
20260506161617 63 198 4.0 14.0 0.03 0.09 0.09 95 1008.8
20260506160117 62 187 2.0 16.0 0.03 0.08 0.08 95 1009.2
20260506154616 62 236 2.0 16.0 0.03 0.08 0.08 94 1009.1
20260506154500 62 131 7.0 14.0 0.04 0.09 0.09 94 1009.1
20260506153116 62 138 9.0 9.0 0.05 0.06 0.06 94 1009.3
20260506151616 62 198 7.0 9.0 0.05 0.06 0.06 94 1009.8
20260506150116 61 167 6.0 10.0 0.05 0.05 0.05 94 1009.9
20260506144616 61 165 6.0 10.0 0.05 0.05 0.05 93 1010.0
20260506144502 61 155 4.0 10.0 0.05 0.05 0.05 93 1010.1
20260506143116 62 127 1.0 10.0 0.01 0.01 0.01 91 1009.9
20260506141615 62 154 1.0 10.0 0.01 0.01 0.01 90 1010.0
20260506140115 63 138 1.0 9.0 0.00 0.00 0.00 88 1010.2
20260506134615 64 121 1.0 9.0 0.00 0.00 0.00 84 1010.2
20260506134452 64 148 2.0 10.0 0.00 0.00 0.00 83 1010.3
20260506133115 65 163 0.0 13.0 0.00 0.00 0.00 79 1010.3
20260506131615 65 142 5.0 13.0 0.00 0.00 0.00 78 1010.0
20260506130115 66 140 4.0 11.0 0.00 0.00 0.00 77 1009.8
20260506124614 66 219 7.0 11.0 0.00 0.00 0.00 77 1009.6
20260506124446 66 170 3.0 9.0 0.00 0.00 0.00 77 1009.7
20260506123114 66 205 1.0 10.0 0.00 0.00 0.00 77 1009.8
20260506121614 66 205 0.0 10.0 0.00 0.00 0.00 77 1010.0
20260506120114 66 318 0.0 13.0 0.00 0.00 0.00 77 1010.0
20260506114613 66 194 3.0 13.0 0.00 0.00 0.00 77 1009.8
20260506114448 66 104 2.0 11.0 0.00 0.00 0.00 77 1009.8
20260506113113 66 146 2.0 13.0 0.00 0.00 0.00 77 1009.6
20260506111613 66 151 8.0 13.0 0.00 0.00 0.00 78 1009.3